Location: Ku?niki
(51.4449°N, 17.8974°E)
Time: 05:19:33
(UTC+00:00)

DX 1 - Pass Details

Date: 28 June 2022
Orbit: 616 x 630 km, 98.4° (Epoch: 17 August)

Event Time Altitude Azimuth Distance (km) Brightness Sun altitude
Rises 21:38:54 0° 3° (N) 2,937 ? -13.6°
Reaches altitude 10° 21:41:41 10° 345° (NNW) 2,023 ? -13.7°
Maximum altitude 21:44:37 18° 303° (WNW) 1,561 ? -13.9°
Drops below altitude 10° 21:47:33 10° 261° (W) 2,011 ? -14.0°
Sets 21:50:18 0° 242° (WSW) 2,912 ? -14.1°
